Change the Weather History Date:

Saturday, November 17, 2012

  Actual Average Record
Temperature  
Mean Temperature 50 °F -  
Max Temperature 66 °F 70 °F 82 °F (2013)
Min Temperature 35 °F 47 °F 32 °F (2014)
Degree Days  
Heating Degree Days 14    
Moisture  
Dew Point 39 °F    
Average Humidity 80    
Maximum Humidity 100    
Minimum Humidity 32    
Precipitation  
Precipitation 0.00 in - - ()
Sea Level Pressure  
Sea Level Pressure 30.33 in    
Wind  
Wind Speed 1 mph ()    
Max Wind Speed 9 mph    
Max Gust Speed -    
Visibility 9.9 miles    
Events      
Averages and records for this station are not official NWS values.
T = Trace of Precipitation, MM = Missing Value Source: Averaged Metar Reports

Daily Weather History Graph

Daily Weather History Graph

Search for Another Location

Airport or City:

Trip Planner

Search our weather history database for the weather conditions in past years. The results will help you decide how hot, cold, wet, or windy it might be!

Date:

Astronomy

Nov. 17, 2012 Rise Set
Actual Time 6:28 AM CST 5:00 PM CST
Civil Twilight 6:02 AM CST 5:26 PM CST
Nautical Twilight 5:33 AM CST 5:55 PM CST
Astronomical Twilight 5:04 AM CST 6:24 PM CST
Moon 10:12 AM CST (11/17) 9:09 PM CST (11/17)
Length of Visible Light 11h 23m
Length of Day
10h 32m
Waxing Crescent, 20% of the Moon is Illuminated
Nov 17
Waxing Crescent
Nov 20
First Quarter
Nov 28
Full
Dec 6
Last Quarter
Dec 13
New

Hourly Weather History & Observations

Time (CST) Temp. Windchill Dew Point Humidity Pressure Visibility Wind Dir Wind Speed Gust Speed Precip Events Conditions
12:15 AM 37.8 °F - 37.8 °F 100% 30.32 in 10.0 mi Calm Calm - N/A   Unknown
12:35 AM 37.8 °F - 37.8 °F 100% 30.32 in 10.0 mi Calm Calm - N/A   Unknown
12:55 AM 38.3 °F - 38.3 °F 100% 30.32 in 10.0 mi Calm Calm - N/A   Unknown
1:15 AM 38.3 °F - 38.3 °F 100% 30.32 in 10.0 mi Calm Calm - N/A   Unknown
1:35 AM 37.4 °F - 37.4 °F 100% 30.31 in 10.0 mi Calm Calm - N/A   Unknown
1:55 AM 36.7 °F - 36.7 °F 100% 30.31 in 10.0 mi Calm Calm - N/A   Unknown
2:15 AM 37.2 °F - 37.2 °F 100% 30.31 in 10.0 mi Calm Calm - N/A   Unknown
2:35 AM 37.0 °F - 37.0 °F 100% 30.31 in 10.0 mi Calm Calm - N/A   Unknown
2:55 AM 36.5 °F - 36.5 °F 100% 30.31 in 10.0 mi Calm Calm - N/A   Unknown
3:15 AM 37.6 °F - 37.6 °F 100% 30.31 in 10.0 mi Calm Calm - N/A   Unknown
3:35 AM 37.4 °F - 37.4 °F 100% 30.31 in 10.0 mi Calm Calm - N/A   Unknown
3:55 AM 37.4 °F - 37.4 °F 100% 30.31 in 10.0 mi Calm Calm - N/A   Unknown
4:15 AM 37.4 °F - 37.4 °F 100% 30.31 in 10.0 mi Calm Calm - N/A   Unknown
4:35 AM 37.6 °F - 37.6 °F 100% 30.31 in 10.0 mi Calm Calm - N/A   Unknown
4:55 AM 35.8 °F - 35.8 °F 100% 30.31 in 10.0 mi Calm Calm - N/A   Unknown
5:15 AM 36.0 °F - 36.0 °F 100% 30.32 in 10.0 mi Calm Calm - N/A   Unknown
5:55 AM 35.6 °F - 35.6 °F 100% 30.33 in 10.0 mi Calm Calm - N/A   Unknown
6:15 AM 35.4 °F - 35.4 °F 100% 30.33 in 10.0 mi Calm Calm - N/A   Unknown
6:35 AM 36.0 °F - 36.0 °F 100% 30.34 in 10.0 mi Calm Calm - N/A   Unknown
6:55 AM 35.8 °F - 35.8 °F 100% 30.35 in 10.0 mi Calm Calm - N/A   Unknown
7:15 AM 36.9 °F - 36.9 °F 100% 30.35 in 10.0 mi Calm Calm - N/A   Unknown
7:35 AM 39.6 °F - 38.3 °F 95% 30.36 in 10.0 mi Calm Calm - N/A   Unknown
7:55 AM 42.8 °F 41.1 °F 36.5 °F 78% 30.36 in 10.0 mi NNE 3.5 mph - N/A   Unknown
8:15 AM 45.0 °F 43.5 °F 37.2 °F 74% 30.38 in 10.0 mi NNE 3.5 mph - N/A   Unknown
8:35 AM 47.1 °F - 36.9 °F 68% 30.38 in 10.0 mi NE 4.6 mph - N/A   Unknown
9:15 AM 50.4 °F - 38.5 °F 64% 30.39 in 10.0 mi NNE 3.5 mph - N/A   Unknown
9:35 AM 52.5 °F - 39.0 °F 60% 30.39 in 10.0 mi ENE 3.5 mph - N/A   Unknown
9:55 AM 54.9 °F - 40.1 °F 58% 30.39 in 10.0 mi ENE 3.5 mph - N/A   Unknown
10:15 AM 56.3 °F - 39.9 °F 54% 30.39 in 10.0 mi NE 3.5 mph - N/A   Unknown
10:35 AM 58.8 °F - 40.8 °F 51% 30.38 in 10.0 mi East 3.5 mph - N/A   Unknown
11:55 AM 63.9 °F - 40.5 °F 42% 30.34 in 10.0 mi East 4.6 mph - N/A   Unknown
12:15 PM 64.4 °F - 39.7 °F 40% 30.33 in 10.0 mi NNE 6.9 mph - N/A   Unknown
12:35 PM 64.8 °F - 38.5 °F 38% 30.32 in 10.0 mi ENE 9.2 mph - N/A   Unknown
12:55 PM 65.7 °F - 39.4 °F 38% 30.31 in 10.0 mi East 4.6 mph - N/A   Unknown
1:15 PM 65.5 °F - 38.7 °F 37% 30.31 in 10.0 mi NNE 5.8 mph - N/A   Unknown
1:55 PM 66.2 °F - 37.6 °F 35% 30.30 in 10.0 mi NE 8.1 mph - N/A   Unknown
2:15 PM 65.8 °F - 38.5 °F 37% 30.30 in 10.0 mi NNE 3.5 mph - N/A   Unknown
2:35 PM 66.4 °F - 38.7 °F 36% 30.29 in 10.0 mi NNE 8.1 mph - N/A   Unknown
2:55 PM 66.4 °F - 37.0 °F 34% 30.29 in 10.0 mi NNE 8.1 mph - N/A   Unknown
3:15 PM 66.2 °F - 35.8 °F 32% 30.29 in 10.0 mi NNE 6.9 mph - N/A   Unknown
3:35 PM 65.5 °F - 37.2 °F 35% 30.29 in 10.0 mi NNE 9.2 mph - N/A   Unknown
3:55 PM 65.1 °F - 37.0 °F 35% 30.29 in 10.0 mi NNE 5.8 mph - N/A   Unknown
4:15 PM 64.2 °F - 37.9 °F 38% 30.29 in 10.0 mi NNE 6.9 mph - N/A   Unknown
4:35 PM 62.6 °F - 39.4 °F 42% 30.29 in 10.0 mi NNE 5.8 mph - N/A   Unknown
4:55 PM 59.4 °F - 41.2 °F 51% 30.29 in 10.0 mi NNE 4.6 mph - N/A   Unknown
5:15 PM 56.8 °F - 43.0 °F 60% 30.29 in 10.0 mi NNE 4.6 mph - N/A   Unknown
5:35 PM 53.2 °F - 45.0 °F 73% 30.29 in 10.0 mi NNE 3.5 mph - N/A   Unknown
5:55 PM 50.2 °F - 45.1 °F 83% 30.29 in 10.0 mi North 3.5 mph - N/A   Unknown
6:15 PM 48.7 °F - 44.1 °F 84% 30.30 in 10.0 mi Calm Calm - N/A   Unknown
6:35 PM 48.6 °F - 48.6 °F 100% 30.31 in 10.0 mi Calm Calm - N/A   Unknown
6:55 PM 47.8 °F - 47.8 °F 100% 30.31 in 10.0 mi Calm Calm - N/A   Unknown
7:15 PM 46.0 °F - 46.0 °F 100% 30.31 in 10.0 mi Calm Calm - N/A   Unknown
7:35 PM 45.5 °F - 45.5 °F 100% 30.31 in 10.0 mi Calm Calm - N/A   Unknown
7:55 PM 44.2 °F - 44.2 °F 100% 30.31 in 10.0 mi Calm Calm - N/A   Unknown
8:15 PM 42.4 °F - 42.4 °F 100% 30.32 in 10.0 mi Calm Calm - N/A   Unknown
8:35 PM 42.1 °F - 42.1 °F 100% 30.33 in 10.0 mi Calm Calm - N/A   Unknown
8:55 PM 42.1 °F - 42.1 °F 100% 30.34 in 10.0 mi Calm Calm - N/A   Unknown
9:15 PM 41.4 °F - 41.4 °F 100% 30.34 in 7.0 mi Calm Calm - N/A   Unknown
9:35 PM 40.8 °F - 40.8 °F 100% 30.35 in 10.0 mi Calm Calm - N/A   Unknown
9:55 PM 39.0 °F - 39.0 °F 100% 30.35 in 10.0 mi Calm Calm - N/A   Unknown
10:15 PM 40.8 °F - 40.8 °F 100% 30.35 in 10.0 mi Calm Calm - N/A   Unknown
10:35 PM 39.9 °F - 39.9 °F 100% 30.35 in 7.0 mi Calm Calm - N/A   Unknown
10:55 PM 39.0 °F - 39.0 °F 100% 30.35 in 10.0 mi Calm Calm - N/A   Unknown
11:15 PM 39.4 °F - 39.4 °F 100% 30.35 in 7.0 mi Calm Calm - N/A   Unknown
11:35 PM 37.6 °F - 37.6 °F 100% 30.34 in 10.0 mi Calm Calm - N/A   Unknown
11:55 PM 38.8 °F - 38.8 °F 100% 30.34 in 10.0 mi Calm Calm - N/A   Unknown